Other Public Products
Issued by NWS Charleston, SC

Current Version | Previous Version | Text Only | Print | Product List | Glossary Off
Versions: 1 2 3 4 5 6 7 8 9 10 11 12 13 14 15 16 17 18 19 20 21 22 23 24 25 26 27 28 29 30 31 32 33 34 35 36 37 38 39 40 41 42 43 44 45 46 47 48 49 50

944
FPUS82 KCHS 200813
OPUCHS

TEST...KCHS/KSAV Gateway Observations...TEST
National Weather Service Charleston SC
400 AM EDT FRI APR 20 2018

NOTE: "fair" indicates few or no clouds below 12,000 feet with no
significant weather and/or obstructions to visibility.

SCZ050-WAZ558-NCZ071-TXZ119-213-PAZ071-DCZ001-FLZ074-172-MI076-
NYZ176-178-MAZ016-IL014-TNZ027-NJZ106-GAZ044-MD014-200900-

...Gateway Observations for Charleston International...

CITY           SKY/WX    TMP DP  RH WIND       PRES   REMARKS
Chas Airport   FAIR      52  30  43 NE12      30.19R
Seattle        PTCLDY    50  36  58 NE3       30.27R
Charlotte      FAIR      41  28  60 NE7       30.28R
Dallas DFW     PTCLDY    51  38  60 E6        30.24F
Dallas Love    PTCLDY    53  41  63 E7        30.25F
Philladelphia  FAIR      38  22  52 NW14      30.15R WCI  30
Wash National  FAIR      40  21  46 NW12      30.23R WCI  33
Baltimore      FAIR      37  23  56 W9        30.20R WCI  30
Miami          FAIR      70  66  87 SW3       30.06F
Detroit        FAIR      35  21  56 NW3       30.37R
Newark         MOCLDY    37  24  59 W14       30.07R WCI  28
Laguardia      FAIR      39  25  57 NW16      30.06R WCI  30
J F K          FAIR      37  24  59 W12G21    30.07R WCI  29
Boston Logan   FAIR      37  29  72 W15G22    29.87R WCI  28
Ft. Lauderdale FAIR      72  67  84 SW5       30.05F
Chicago O`Hare FAIR      37  23  56 W5        30.44R WCI  33
Chicago Midway FAIR      38  24  57 CALM      30.45R
Houston Bush   MOCLDY    57  46  66 NE6       30.21S
Houston Hobby  MOCLDY    59  45  59 NE6       30.19F
Nashville      FAIR      39  32  76 N5        30.36R WCI  36
Atlanta        FAIR      46  33  60 N9        30.20R

$$

GAZ044-118-TXZ119-213-NCZ071-DCZ001-MDZ014-506-PAZ021-071-NJZ106-
NYZ176-178-MAZ106-OHZ011-021-055-MIZ076-KYZ091-ILZ014-INZ047-
MNZ060-ONZ431-200900-

...Gateway Observations for Savannah International...

CITY           SKY/WX    TMP DP  RH WIND       PRES   REMARKS
Savannah Arpt  MOCLDY    57  33  40 NE12      30.16R
Atlanta        FAIR      46  33  60 N9        30.20R
Charlotte      FAIR      41  28  60 NE7       30.28R
Dallas DFW     PTCLDY    51  38  60 E6        30.24F
Houston Bush   MOCLDY    57  46  66 NE6       30.21S
Wash National  FAIR      40  21  46 NW12      30.23R WCI  33
Wash Dulles    FAIR      38  24  57 NW13      30.22R WCI  30
Baltimore      FAIR      37  23  56 W9        30.20R WCI  30
Philadelphia   FAIR      38  22  52 NW14      30.15R WCI  30
Newark         MOCLDY    37  24  59 W14       30.07R WCI  28
Laguardia      FAIR      39  25  57 NW16      30.06R WCI  30
J F K          FAIR      37  24  59 W12G21    30.07R WCI  29
Boston         FAIR      37  29  72 W15G22    29.87R WCI  28
Pittsburg      FAIR      28  22  78 W10       30.28R WCI  19
Akron          FAIR      30  22  72 W7        30.31R WCI  23
Cleveland      FAIR      29  24  82 SW8       30.36R WCI  21
Cincinnati     FAIR      35  27  72 N8        30.37R WCI  29
Columbus       FAIR      34  26  70 NE3       30.37R
Detroit        FAIR      35  21  56 NW3       30.37R
Chicago O`Hare FAIR      37  23  56 W5        30.44R WCI  33
Minneapolis    FAIR      33  25  72 CALM      30.48R
Indianapolis   FAIR      34  17  50 N6        30.43R WCI  29
Toronto Canada CLEAR     28  19  69 NW10      30.24S WCI  19

$$




USA.gov is the U.S. government's official web portal to all federal, state and local government web resources and services.